nws-alerts: Checking more than four warning/county codes can delay the loading of your pages. You should use a cron job to get the data.
EllijayWeather Historical Data
Daily Summary for November 24, 2019 Units:  English    Metric   Both
Daily Weekly Monthly Yearly
  High: Low: Average:
Temperature: 47.0 °F 30.0 °F 40.7 °F
Dew Point: 41.0 °F 29.0 °F 36.8 °F
Humidity: 96% 74% 87%
Wind Speed: 7mph 0mph 1.4mph
Wind Gust: 10mph - -
Wind- - West
Pressure: 30.0 in 29.9 in -
Precipitation: 0.000 in    
 
 
Tabular Data for November 24, 2019
Time Temperature Dew Point Pressure Wind Wind Speed Wind Gust Humidity Rainfall Rate (Hourly)
00:04 43.0 °F 40.0 °F 29.9 in Calm   2 mph 91% 0.000 in
00:09 43.0 °F 40.0 °F 29.9 in NNW 4 mph 5 mph 91% 0.000 in
00:14 43.0 °F 40.0 °F 29.9 in Calm     91% 0.000 in
00:19 43.0 °F 41.0 °F 29.9 in Calm     92% 0.000 in
00:24 43.0 °F 41.0 °F 29.9 in Calm   1 mph 92% 0.000 in
00:29 43.0 °F 41.0 °F 29.9 in West 1 mph 4 mph 92% 0.000 in
00:34 43.0 °F 41.0 °F 29.9 in Calm   4 mph 92% 0.000 in
00:39 43.0 °F 41.0 °F 29.9 in WNW 6 mph 6 mph 92% 0.000 in
00:44 43.0 °F 40.0 °F 29.9 in NW 2 mph 6 mph 91% 0.000 in
00:49 43.0 °F 41.0 °F 29.9 in NW 2 mph 4 mph 92% 0.000 in
00:54 43.0 °F 41.0 °F 29.9 in West 1 mph 2 mph 92% 0.000 in
00:59 42.0 °F 40.0 °F 29.9 in Calm     92% 0.000 in
01:04 42.0 °F 40.0 °F 29.9 in WSW 3 mph 3 mph 92% 0.000 in
01:09 42.0 °F 40.0 °F 29.9 in NW 1 mph 1 mph 92% 0.000 in
01:14 42.0 °F 41.0 °F 29.9 in WSW 2 mph 4 mph 93% 0.000 in
01:19 42.0 °F 41.0 °F 29.9 in NE 3 mph 4 mph 93% 0.000 in
01:24 42.0 °F 40.0 °F 29.9 in NW 1 mph 6 mph 92% 0.000 in
01:29 42.0 °F 40.0 °F 29.9 in NW 3 mph 4 mph 92% 0.000 in
01:34 42.0 °F 40.0 °F 29.9 in Calm   3 mph 91% 0.000 in
01:39 42.0 °F 40.0 °F 29.9 in NNW 2 mph 3 mph 90% 0.000 in
01:44 42.0 °F 40.0 °F 29.9 in North 3 mph 3 mph 90% 0.000 in
01:49 42.0 °F 39.0 °F 29.9 in East 1 mph 2 mph 89% 0.000 in
01:54 42.0 °F 39.0 °F 29.9 in WNW 4 mph 5 mph 89% 0.000 in
01:59 42.0 °F 39.0 °F 29.9 in WNW 2 mph 5 mph 89% 0.000 in
02:04 42.0 °F 39.0 °F 29.9 in NW 4 mph 4 mph 89% 0.000 in
02:09 42.0 °F 39.0 °F 29.9 in NW 1 mph 4 mph 89% 0.000 in
02:14 42.0 °F 39.0 °F 29.9 in NNW 5 mph 5 mph 87% 0.000 in
02:19 42.0 °F 39.0 °F 29.9 in NW 5 mph 5 mph 88% 0.000 in
02:24 42.0 °F 39.0 °F 29.9 in NNE 5 mph 7 mph 88% 0.000 in
02:29 42.0 °F 39.0 °F 29.9 in NNW 3 mph 5 mph 89% 0.000 in
02:34 42.0 °F 39.0 °F 29.9 in NNW 2 mph 3 mph 90% 0.000 in
02:39 42.0 °F 39.0 °F 29.9 in NW 3 mph 6 mph 90% 0.000 in
02:44 41.0 °F 39.0 °F 29.9 in Calm   5 mph 90% 0.000 in
02:49 41.0 °F 39.0 °F 29.9 in WNW 3 mph 7 mph 90% 0.000 in
02:54 41.0 °F 39.0 °F 29.9 in NW 4 mph 7 mph 90% 0.000 in
02:59 41.0 °F 38.0 °F 29.9 in NW 5 mph 8 mph 90% 0.000 in
03:04 41.0 °F 39.0 °F 29.9 in Calm   3 mph 91% 0.000 in
03:09 41.0 °F 39.0 °F 29.9 in NE 3 mph 4 mph 91% 0.000 in
03:14 41.0 °F 39.0 °F 29.9 in NW 2 mph 6 mph 91% 0.000 in
03:19 41.0 °F 38.0 °F 29.9 in North 3 mph 7 mph 90% 0.000 in
03:24 41.0 °F 39.0 °F 29.9 in NW 2 mph 4 mph 91% 0.000 in
03:29 41.0 °F 38.0 °F 29.9 in WSW 1 mph 4 mph 90% 0.000 in
03:34 41.0 °F 38.0 °F 29.9 in NNW 7 mph 8 mph 90% 0.000 in
03:39 41.0 °F 38.0 °F 29.9 in WSW 2 mph 4 mph 90% 0.000 in
03:44 41.0 °F 38.0 °F 29.9 in North 1 mph 4 mph 90% 0.000 in
03:49 41.0 °F 38.0 °F 29.9 in NE 3 mph 4 mph 89% 0.000 in
03:54 41.0 °F 38.0 °F 29.9 in NW 2 mph 6 mph 90% 0.000 in
03:59 41.0 °F 38.0 °F 29.9 in NW 4 mph 6 mph 90% 0.000 in
04:04 41.0 °F 38.0 °F 29.9 in Calm   1 mph 90% 0.000 in
04:09 41.0 °F 38.0 °F 29.9 in North 1 mph 3 mph 90% 0.000 in
04:14 41.0 °F 38.0 °F 29.9 in Calm   1 mph 90% 0.000 in
04:19 41.0 °F 38.0 °F 29.9 in West 1 mph 4 mph 90% 0.000 in
04:24 41.0 °F 38.0 °F 29.9 in NW 2 mph 6 mph 90% 0.000 in
04:29 41.0 °F 38.0 °F 29.9 in NW 3 mph 4 mph 90% 0.000 in
04:34 41.0 °F 38.0 °F 29.9 in WNW 5 mph 7 mph 90% 0.000 in
04:39 41.0 °F 38.0 °F 29.9 in WNW 2 mph 6 mph 90% 0.000 in
04:44 41.0 °F 38.0 °F 29.9 in NW 3 mph 4 mph 90% 0.000 in
04:49 40.0 °F 38.0 °F 29.9 in NW 2 mph 5 mph 90% 0.000 in
04:54 40.0 °F 38.0 °F 29.9 in NW 1 mph 5 mph 90% 0.000 in
04:59 40.0 °F 38.0 °F 29.9 in NW 4 mph 6 mph 91% 0.000 in
05:04 40.0 °F 38.0 °F 29.9 in NW 2 mph 4 mph 92% 0.000 in
05:09 40.0 °F 38.0 °F 29.9 in WNW 3 mph 6 mph 91% 0.000 in
05:14 40.0 °F 38.0 °F 29.9 in NW 5 mph 7 mph 91% 0.000 in
05:19 40.0 °F 38.0 °F 29.9 in WNW 5 mph 7 mph 91% 0.000 in
05:24 40.0 °F 37.0 °F 29.9 in NNW 3 mph 6 mph 91% 0.000 in
05:29 40.0 °F 37.0 °F 29.9 in North 2 mph 7 mph 91% 0.000 in
05:34 40.0 °F 37.0 °F 29.9 in Calm   7 mph 91% 0.000 in
05:39 40.0 °F 37.0 °F 29.9 in West 4 mph 8 mph 91% 0.000 in
05:44 40.0 °F 37.0 °F 29.9 in NW 7 mph 8 mph 91% 0.000 in
05:49 39.0 °F 37.0 °F 29.9 in ESE 1 mph 8 mph 91% 0.000 in
05:54 39.0 °F 37.0 °F 29.9 in NNW 4 mph 6 mph 91% 0.000 in
05:59 39.0 °F 37.0 °F 29.9 in WSW 6 mph 6 mph 91% 0.000 in
06:04 39.0 °F 37.0 °F 29.9 in North 7 mph 7 mph 91% 0.000 in
06:09 39.0 °F 37.0 °F 29.9 in NW 3 mph 7 mph 91% 0.000 in
06:14 39.0 °F 37.0 °F 29.9 in NW 2 mph 8 mph 91% 0.000 in
06:19 39.0 °F 36.0 °F 29.9 in NE 3 mph 8 mph 90% 0.000 in
06:24 39.0 °F 36.0 °F 29.9 in NNW 3 mph 8 mph 90% 0.000 in
06:29 39.0 °F 36.0 °F 29.9 in WSW 2 mph 8 mph 90% 0.000 in
06:34 39.0 °F 36.0 °F 29.9 in NNW 4 mph 4 mph 90% 0.000 in
06:39 39.0 °F 36.0 °F 29.9 in NW 1 mph 4 mph 90% 0.000 in
06:44 39.0 °F 36.0 °F 29.9 in NNE 2 mph 6 mph 90% 0.000 in
06:49 39.0 °F 36.0 °F 29.9 in SW 2 mph 3 mph 90% 0.000 in
06:54 39.0 °F 36.0 °F 29.9 in NNW 4 mph 5 mph 90% 0.000 in
06:59 39.0 °F 36.0 °F 29.9 in NW 1 mph 6 mph 89% 0.000 in
07:04 39.0 °F 36.0 °F 29.9 in Calm   2 mph 90% 0.000 in
07:09 39.0 °F 36.0 °F 29.9 in NNE 1 mph 3 mph 91% 0.000 in
07:14 39.0 °F 36.0 °F 29.9 in Calm   3 mph 90% 0.000 in
07:19 39.0 °F 36.0 °F 29.9 in NNW 2 mph 4 mph 91% 0.000 in
07:24 39.0 °F 36.0 °F 29.9 in WNW 2 mph 8 mph 90% 0.000 in
07:29 39.0 °F 36.0 °F 29.9 in NNW 4 mph 10 mph 89% 0.000 in
07:34 39.0 °F 36.0 °F 29.9 in NW 3 mph 7 mph 89% 0.000 in
07:39 39.0 °F 36.0 °F 29.9 in NNW 3 mph 7 mph 89% 0.000 in
07:44 39.0 °F 36.0 °F 29.9 in North 1 mph 3 mph 89% 0.000 in
07:49 39.0 °F 36.0 °F 29.9 in ENE 1 mph 3 mph 88% 0.000 in
07:54 39.0 °F 36.0 °F 29.9 in West 3 mph 6 mph 89% 0.000 in
07:59 39.0 °F 36.0 °F 29.9 in Calm   3 mph 88% 0.000 in
08:04 39.0 °F 36.0 °F 29.9 in Calm   1 mph 88% 0.000 in
08:09 39.0 °F 36.0 °F 29.9 in Calm     88% 0.000 in
08:14 39.0 °F 36.0 °F 30.0 in Calm     88% 0.000 in
08:19 39.0 °F 35.0 °F 30.0 in Calm     87% 0.000 in
08:24 39.0 °F 35.0 °F 30.0 in Calm     87% 0.000 in
08:29 39.0 °F 36.0 °F 30.0 in Calm     87% 0.000 in
08:34 40.0 °F 36.0 °F 30.0 in Calm     87% 0.000 in
08:39 40.0 °F 36.0 °F 30.0 in NNW 1 mph 3 mph 87% 0.000 in
08:44 40.0 °F 36.0 °F 29.9 in Calm     85% 0.000 in
08:46 40.0 °F 36.0 °F 29.9 in NNW 1 mph 1 mph 85% 0.000 in
08:59 41.0 °F 37.0 °F 29.9 in NNW 1 mph 1 mph 86% 0.000 in
09:04 41.0 °F 37.0 °F 30.0 in West 5 mph 5 mph 86% 0.000 in
09:09 41.0 °F 37.0 °F 30.0 in NW 3 mph 6 mph 86% 0.000 in
09:14 41.0 °F 37.0 °F 30.0 in North 5 mph 5 mph 85% 0.000 in
09:19 41.0 °F 36.0 °F 30.0 in NNE 3 mph 5 mph 84% 0.000 in
09:24 41.0 °F 37.0 °F 30.0 in Calm   3 mph 85% 0.000 in
09:29 41.0 °F 36.0 °F 30.0 in Calm   2 mph 84% 0.000 in
09:34 41.0 °F 36.0 °F 30.0 in North 3 mph 6 mph 84% 0.000 in
09:39 41.0 °F 36.0 °F 30.0 in WNW 2 mph 6 mph 83% 0.000 in
09:44 41.0 °F 36.0 °F 30.0 in North 1 mph 3 mph 83% 0.000 in
09:49 41.0 °F 36.0 °F 30.0 in Calm   1 mph 84% 0.000 in
09:54 41.0 °F 36.0 °F 30.0 in NW 3 mph 4 mph 84% 0.000 in
09:59 41.0 °F 37.0 °F 30.0 in Calm   4 mph 84% 0.000 in
10:04 42.0 °F 37.0 °F 30.0 in NW 2 mph 2 mph 83% 0.000 in
10:09 42.0 °F 37.0 °F 30.0 in Calm     83% 0.000 in
10:14 42.0 °F 37.0 °F 30.0 in North 3 mph 4 mph 82% 0.000 in
10:19 42.0 °F 38.0 °F 30.0 in NW 2 mph 5 mph 83% 0.000 in
10:24 43.0 °F 37.0 °F 30.0 in North 2 mph 3 mph 81% 0.000 in
10:29 43.0 °F 38.0 °F 30.0 in NNW 1 mph 3 mph 82% 0.000 in
10:34 44.0 °F 38.0 °F 30.0 in NNW 3 mph 3 mph 82% 0.000 in
10:39 44.0 °F 38.0 °F 30.0 in NW 1 mph 3 mph 81% 0.000 in
10:44 44.0 °F 38.0 °F 30.0 in NNW 2 mph 4 mph 79% 0.000 in
10:49 44.0 °F 38.0 °F 30.0 in Calm   4 mph 79% 0.000 in
10:54 45.0 °F 38.0 °F 30.0 in NNW 4 mph 6 mph 77% 0.000 in
10:59 45.0 °F 38.0 °F 30.0 in NNE 2 mph 6 mph 78% 0.000 in
11:04 45.0 °F 39.0 °F 30.0 in NNW 7 mph 7 mph 79% 0.000 in
11:09 46.0 °F 39.0 °F 30.0 in NNW 5 mph 7 mph 77% 0.000 in
11:14 46.0 °F 39.0 °F 30.0 in NNW 3 mph 5 mph 76% 0.000 in
11:19 46.0 °F 39.0 °F 30.0 in NNW 6 mph 8 mph 76% 0.000 in
11:24 46.0 °F 39.0 °F 30.0 in Calm   3 mph 76% 0.000 in
11:29 46.0 °F 39.0 °F 30.0 in NNE 2 mph 4 mph 77% 0.000 in
11:34 46.0 °F 38.0 °F 30.0 in NE 2 mph 4 mph 75% 0.000 in
11:39 46.0 °F 38.0 °F 30.0 in NW 3 mph 4 mph 75% 0.000 in
11:44 45.0 °F 38.0 °F 30.0 in WNW 4 mph 5 mph 76% 0.000 in
11:49 45.0 °F 38.0 °F 30.0 in Calm   3 mph 77% 0.000 in
11:54 45.0 °F 38.0 °F 30.0 in Calm     78% 0.000 in
11:59 45.0 °F 38.0 °F 29.9 in SW 1 mph 4 mph 77% 0.000 in
12:04 44.0 °F 38.0 °F 29.9 in NE 1 mph 2 mph 78% 0.000 in
12:09 44.0 °F 38.0 °F 29.9 in NNW 3 mph 4 mph 77% 0.000 in
12:14 45.0 °F 38.0 °F 29.9 in NNW 3 mph 4 mph 77% 0.000 in
12:19 45.0 °F 38.0 °F 29.9 in Calm   3 mph 78% 0.000 in
12:24 45.0 °F 38.0 °F 29.9 in North 1 mph 2 mph 78% 0.000 in
12:29 45.0 °F 38.0 °F 29.9 in Calm   3 mph 77% 0.000 in
12:34 45.0 °F 39.0 °F 29.9 in Calm   3 mph 78% 0.000 in
12:39 46.0 °F 39.0 °F 29.9 in NW 1 mph 4 mph 77% 0.000 in
12:44 46.0 °F 39.0 °F 29.9 in NNW 2 mph 3 mph 77% 0.000 in
12:49 46.0 °F 39.0 °F 29.9 in North 1 mph 3 mph 76% 0.000 in
12:54 46.0 °F 39.0 °F 29.9 in WSW 3 mph 5 mph 76% 0.000 in
12:59 46.0 °F 39.0 °F 29.9 in Calm   2 mph 76% 0.000 in
13:04 46.0 °F 39.0 °F 29.9 in North 4 mph 4 mph 76% 0.000 in
13:09 46.0 °F 39.0 °F 29.9 in NNW 2 mph 4 mph 75% 0.000 in
13:14 47.0 °F 40.0 °F 29.9 in NNW 1 mph 3 mph 77% 0.000 in
13:19 47.0 °F 39.0 °F 29.9 in NNE 3 mph 3 mph 76% 0.000 in
13:24 47.0 °F 40.0 °F 29.9 in Calm   1 mph 76% 0.000 in
13:29 47.0 °F 39.0 °F 29.9 in NNW 4 mph 6 mph 75% 0.000 in
13:34 47.0 °F 39.0 °F 29.9 in Calm   6 mph 76% 0.000 in
13:39 47.0 °F 39.0 °F 29.9 in NW 2 mph 3 mph 76% 0.000 in
13:44 47.0 °F 39.0 °F 29.9 in NW 2 mph 6 mph 74% 0.000 in
13:49 47.0 °F 39.0 °F 29.9 in WNW 5 mph 5 mph 74% 0.000 in
13:54 47.0 °F 39.0 °F 29.9 in West 1 mph 5 mph 75% 0.000 in
13:59 47.0 °F 40.0 °F 29.9 in Calm   5 mph 76% 0.000 in
14:04 47.0 °F 39.0 °F 29.9 in NW 1 mph 4 mph 76% 0.000 in
14:09 47.0 °F 39.0 °F 29.9 in NW 7 mph 7 mph 75% 0.000 in
14:14 46.0 °F 39.0 °F 29.9 in Calm   4 mph 75% 0.000 in
14:19 46.0 °F 39.0 °F 29.9 in NNW 3 mph 3 mph 76% 0.000 in
14:24 46.0 °F 39.0 °F 29.9 in Calm   5 mph 75% 0.000 in
14:29 46.0 °F 39.0 °F 29.9 in Calm   2 mph 76% 0.000 in
14:34 46.0 °F 39.0 °F 29.9 in NW 3 mph 3 mph 77% 0.000 in
14:39 46.0 °F 39.0 °F 29.9 in NW 1 mph 4 mph 75% 0.000 in
14:44 46.0 °F 39.0 °F 29.9 in NNW 2 mph 2 mph 76% 0.000 in
14:49 46.0 °F 39.0 °F 29.9 in East 4 mph 5 mph 76% 0.000 in
14:54 47.0 °F 40.0 °F 29.9 in North 2 mph 5 mph 77% 0.000 in
14:59 47.0 °F 39.0 °F 29.9 in West 2 mph 2 mph 76% 0.000 in
15:04 47.0 °F 40.0 °F 29.9 in Calm     77% 0.000 in
15:09 47.0 °F 40.0 °F 29.9 in WNW 1 mph 1 mph 77% 0.000 in
15:14 47.0 °F 40.0 °F 29.9 in Calm     77% 0.000 in
15:19 47.0 °F 39.0 °F 29.9 in NNW 1 mph 2 mph 75% 0.000 in
15:24 47.0 °F 39.0 °F 29.9 in NNW 4 mph 4 mph 75% 0.000 in
15:29 47.0 °F 39.0 °F 29.9 in Calm   2 mph 75% 0.000 in
15:34 46.0 °F 40.0 °F 29.9 in Calm   2 mph 78% 0.000 in
15:39 46.0 °F 39.0 °F 29.9 in WNW 4 mph 5 mph 76% 0.000 in
15:44 46.0 °F 39.0 °F 29.9 in NW 1 mph 2 mph 77% 0.000 in
15:49 46.0 °F 39.0 °F 29.9 in NNE 3 mph 3 mph 78% 0.000 in
15:54 46.0 °F 39.0 °F 29.9 in Calm   3 mph 77% 0.000 in
15:59 46.0 °F 39.0 °F 29.9 in Calm   1 mph 77% 0.000 in
16:04 46.0 °F 39.0 °F 29.9 in WNW 1 mph 2 mph 78% 0.000 in
16:09 46.0 °F 39.0 °F 29.9 in Calm     78% 0.000 in
16:14 46.0 °F 39.0 °F 29.9 in Calm     78% 0.000 in
16:19 46.0 °F 39.0 °F 29.9 in Calm     78% 0.000 in
16:24 45.0 °F 39.0 °F 29.9 in NNE 2 mph 2 mph 79% 0.000 in
16:29 45.0 °F 40.0 °F 29.9 in Calm   2 mph 81% 0.000 in
16:34 45.0 °F 39.0 °F 29.9 in Calm     80% 0.000 in
16:39 45.0 °F 40.0 °F 29.9 in Calm     81% 0.000 in
16:44 45.0 °F 40.0 °F 29.9 in Calm     81% 0.000 in
16:49 45.0 °F 39.0 °F 29.9 in Calm     82% 0.000 in
16:54 45.0 °F 39.0 °F 29.9 in NNW 1 mph 1 mph 82% 0.000 in
16:59 44.0 °F 39.0 °F 29.9 in Calm     81% 0.000 in
17:04 44.0 °F 39.0 °F 29.9 in Calm   1 mph 81% 0.000 in
17:09 44.0 °F 39.0 °F 29.9 in Calm     81% 0.000 in
17:14 44.0 °F 38.0 °F 29.9 in Calm     80% 0.000 in
17:19 44.0 °F 38.0 °F 29.9 in Calm     81% 0.000 in
17:24 43.0 °F 38.0 °F 29.9 in Calm     82% 0.000 in
17:29 43.0 °F 38.0 °F 29.9 in Calm     83% 0.000 in
17:34 43.0 °F 38.0 °F 29.9 in Calm     83% 0.000 in
17:39 43.0 °F 38.0 °F 29.9 in Calm     84% 0.000 in
17:44 42.0 °F 38.0 °F 29.9 in Calm     85% 0.000 in
17:49 42.0 °F 38.0 °F 30.0 in Calm     85% 0.000 in
17:54 42.0 °F 38.0 °F 30.0 in Calm     85% 0.000 in
17:59 42.0 °F 37.0 °F 29.9 in Calm     85% 0.000 in
18:04 41.0 °F 37.0 °F 29.9 in Calm     85% 0.000 in
18:09 41.0 °F 37.0 °F 30.0 in Calm     86% 0.000 in
18:14 41.0 °F 37.0 °F 30.0 in Calm     86% 0.000 in
18:19 41.0 °F 37.0 °F 30.0 in Calm     87% 0.000 in
18:24 40.0 °F 37.0 °F 30.0 in Calm     87% 0.000 in
18:29 40.0 °F 37.0 °F 30.0 in Calm     88% 0.000 in
18:34 40.0 °F 37.0 °F 30.0 in Calm     88% 0.000 in
18:39 39.0 °F 36.0 °F 30.0 in Calm     88% 0.000 in
18:44 39.0 °F 36.0 °F 30.0 in Calm     89% 0.000 in
18:49 39.0 °F 36.0 °F 30.0 in Calm     90% 0.000 in
18:54 39.0 °F 36.0 °F 30.0 in Calm     90% 0.000 in
18:59 38.0 °F 36.0 °F 30.0 in Calm     90% 0.000 in
19:04 38.0 °F 36.0 °F 30.0 in Calm     91% 0.000 in
19:09 38.0 °F 35.0 °F 30.0 in Calm     91% 0.000 in
19:14 38.0 °F 35.0 °F 30.0 in Calm     91% 0.000 in
19:19 37.0 °F 35.0 °F 30.0 in Calm     92% 0.000 in
19:24 37.0 °F 35.0 °F 30.0 in Calm     92% 0.000 in
19:29 37.0 °F 35.0 °F 30.0 in Calm     92% 0.000 in
19:34 37.0 °F 35.0 °F 30.0 in Calm     92% 0.000 in
19:39 37.0 °F 35.0 °F 30.0 in Calm     92% 0.000 in
19:44 36.0 °F 34.0 °F 30.0 in Calm     92% 0.000 in
19:49 36.0 °F 34.0 °F 30.0 in Calm     93% 0.000 in
19:54 36.0 °F 34.0 °F 30.0 in Calm     93% 0.000 in
19:59 36.0 °F 34.0 °F 30.0 in Calm     93% 0.000 in
20:04 36.0 °F 34.0 °F 30.0 in Calm     93% 0.000 in
20:09 35.0 °F 34.0 °F 30.0 in Calm     93% 0.000 in
20:14 35.0 °F 34.0 °F 30.0 in Calm     94% 0.000 in
20:19 35.0 °F 34.0 °F 30.0 in Calm     94% 0.000 in
20:24 35.0 °F 33.0 °F 30.0 in Calm     94% 0.000 in
20:29 35.0 °F 33.0 °F 30.0 in Calm     94% 0.000 in
20:34 35.0 °F 33.0 °F 30.0 in Calm     94% 0.000 in
20:39 35.0 °F 33.0 °F 30.0 in Calm     94% 0.000 in
20:44 35.0 °F 33.0 °F 30.0 in Calm     94% 0.000 in
20:49 34.0 °F 33.0 °F 30.0 in Calm     94% 0.000 in
20:54 34.0 °F 33.0 °F 30.0 in Calm     94% 0.000 in
20:59 34.0 °F 33.0 °F 30.0 in Calm     94% 0.000 in
21:04 34.0 °F 32.0 °F 30.0 in Calm     94% 0.000 in
21:09 34.0 °F 32.0 °F 30.0 in Calm     94% 0.000 in
21:14 34.0 °F 32.0 °F 30.0 in Calm     94% 0.000 in
21:19 33.0 °F 32.0 °F 30.0 in Calm     94% 0.000 in
21:24 33.0 °F 32.0 °F 30.0 in Calm     94% 0.000 in
21:29 33.0 °F 32.0 °F 30.0 in Calm     94% 0.000 in
21:34 33.0 °F 32.0 °F 30.0 in Calm     94% 0.000 in
21:39 33.0 °F 32.0 °F 30.0 in Calm     94% 0.000 in
21:44 33.0 °F 31.0 °F 30.0 in Calm     94% 0.000 in
21:49 33.0 °F 31.0 °F 30.0 in Calm     94% 0.000 in
21:54 33.0 °F 31.0 °F 30.0 in Calm     95% 0.000 in
21:59 33.0 °F 31.0 °F 30.0 in Calm     94% 0.000 in
22:04 32.0 °F 31.0 °F 30.0 in Calm     95% 0.000 in
22:09 32.0 °F 31.0 °F 30.0 in Calm     95% 0.000 in
22:14 32.0 °F 31.0 °F 30.0 in Calm     95% 0.000 in
22:19 32.0 °F 31.0 °F 30.0 in Calm     95% 0.000 in
22:24 32.0 °F 31.0 °F 30.0 in Calm     95% 0.000 in
22:29 32.0 °F 31.0 °F 30.0 in Calm     95% 0.000 in
22:34 32.0 °F 31.0 °F 30.0 in Calm     95% 0.000 in
22:39 32.0 °F 30.0 °F 30.0 in Calm     95% 0.000 in
22:44 32.0 °F 30.0 °F 30.0 in Calm     95% 0.000 in
22:49 32.0 °F 30.0 °F 30.0 in Calm     95% 0.000 in
22:54 32.0 °F 30.0 °F 30.0 in Calm     95% 0.000 in
22:59 31.0 °F 30.0 °F 30.0 in Calm     95% 0.000 in
23:04 31.0 °F 30.0 °F 30.0 in Calm     95% 0.000 in
23:09 31.0 °F 30.0 °F 30.0 in Calm     95% 0.000 in
23:14 31.0 °F 30.0 °F 30.0 in Calm     95% 0.000 in
23:19 31.0 °F 30.0 °F 30.0 in Calm     95% 0.000 in
23:24 31.0 °F 29.0 °F 30.0 in Calm     95% 0.000 in
23:29 31.0 °F 29.0 °F 30.0 in Calm     95% 0.000 in
23:34 30.0 °F 29.0 °F 30.0 in Calm     95% 0.000 in
23:39 30.0 °F 29.0 °F 30.0 in Calm     95% 0.000 in
23:44 30.0 °F 29.0 °F 30.0 in Calm     95% 0.000 in
23:49 30.0 °F 29.0 °F 30.0 in Calm     95% 0.000 in
23:54 30.0 °F 29.0 °F 30.0 in Calm     96% 0.000 in
23:59 30.0 °F 29.0 °F 30.0 in Calm     96% 0.000 in
East Ellijay Weather
Compliments of Weather Underground - 2 mb